Weather Roundup
Issued by NWS Chicago, IL

Home | Current Version | Previous Version | Text Only | Print | Product List | Glossary Off
Versions: 1 2 3 4 5 6 7 8 9 10 11 12 13 14 15 16 17 18 19 20 21 22 23 24 25 26 27 28 29 30 31 32 33 34 35 36 37 38 39 40 41 42 43 44 45 46 47 48 49 50

000
NZUS59 KLOT 241412
HRRLOT

CHICAGO AREA WEATHER ROUNDUP
NATIONAL WEATHER SERVICE CHICAGO/ROMEOVILLE IL
800 AM CST FRI FEB 24 2017

NOTE: "FAIR" INDICATES FEW OR NO CLOUDS BELOW 12,000 FEET WITH NO
SIGNIFICANT WEATHER AND/OR OBSTRUCTIONS TO VISIBILITY.

* THESE STATIONS ARE NOT UNDER NWS QUALITY CONTROL. THEY ALSO MAY NOT
  REPORT WEATHER SUCH AS PRECIPITATION OR FOG.

ILZ005-006-012>014-019>023-241500-
NORTHEAST ILLINOIS

CITY           SKY/WX    TMP DP  RH WIND       PRES   REMARKS
OHARE          CLOUDY    39  37  92 N15       29.49R FOG
MIDWAY         CLOUDY    42  39  89 N10       29.48F
AURORA         CLOUDY    41  39  93 NE15      29.47R
LANSING*       CLOUDY    44  44 100 N6        29.48S FOG
JOLIET*        CLOUDY    45  44  97 NE7       29.47R FOG
WAUKEGAN       CLOUDY    36  35  96 NE14G22   29.51R
DUPAGE AIRPORT CLOUDY    39  37  92 NE10      29.48R
WHEELING       CLOUDY    37  36  96 N12       29.51R
KANKAKEE*      MOSUNNY   59  56  91 S15G21    29.46R
MORRIS*        CLOUDY    44  43  97 NE6       29.45R FOG
LEWIS AIRPORT* CLOUDY    42  42 100 NE8       29.47R FOG
NORTHERLY ISL    N/A     41  39  93 MISG        N/A
$$

WIZ051-052-058>065-066-070>072-241500-
SOUTHEAST WISCONSIN

CITY           SKY/WX    TMP DP  RH WIND       PRES   REMARKS
MILWAUKEE      CLOUDY    36  33  89 N13       29.56R
KENOSHA*       CLOUDY    37  34  89 NE20      29.52S
RACINE*        CLOUDY    37  34  89 NE15G28   29.55R
WAUKESHA       CLOUDY    30  30 100 NE16G35   29.57F WCI  19
WEST BEND      CLOUDY    32  32 100 NE10G18   29.59S WCI  24
$$

INZ001>003-010>013-019-020-241500-
NORTHWEST INDIANA

CITY           SKY/WX    TMP DP  RH WIND       PRES   REMARKS
GARY*          NOT AVBL
MICHIGAN CITY* NOT AVBL
RENSSELAER*    NOT AVBL
VALPARAISO     SUNNY     59  56  89 S12       29.48R
$$

LMZ740>746-241500-
SOUTHERN LAKE MICHIGAN

STATION/POSITION TIME  SKY/WX   TEMP WIND        PRES    VSBY
                                AIR  DIR/SP/G
                 (UTC)          (F)  (DEG/KT/KT) (MB)    (MI)
HARRISON CRIB    1340            38  330/ 15/ 17   N/A
BURNHAM HARBOR   1400            41  340/  5/ 11   N/A
CALUMET HARBOR   1348            41  340/  4/  6  997.9F
BURNS HARBOR     1340            38  290/  8/ 14  999.3R
MICHIGAN CITY    1340            57  200/ 18/ 20   N/A
$$

ABBREVIATIONS USED IN REMARKS
   TC - TEMPERATURE IN CELSIUS
  WCI - WIND CHILL INDEX
   HX - HEAT INDEX
  VSB - VISIBILITY
$$



USA.gov is the U.S. government's official web portal to all federal, state and local government web resources and services.